Perkinsville, VT

3:41 PM EST on February 26, 2017 (GMT -0500)
Hartness State

Weather History for KVSF - February, 2014

Change the Weather History Date:

Sunday, February 16, 2014

  Actual Average Record
Temperature  
Mean Temperature 20 °F 23 °F  
Max Temperature 26 °F 33 °F 57 °F (2006)
Min Temperature 13 °F 13 °F -15 °F (2004)
Degree Days  
Heating Degree Days 45 42  
Month to date heating degree days 745 695  
Since 1 July heating degree days 5170 4967  
Cooling Degree Days 0 0  
Month to date cooling degree days 0  
Year to date cooling degree days 0  
Moisture  
Dew Point 4 °F    
Average Humidity 50    
Maximum Humidity 67    
Minimum Humidity 33    
Precipitation  
Precipitation T in 0.10 in 0.79 in (2016)
Month to date precipitation 0.54 1.57  
Year to date precipitation 2.83 4.49  
Sea Level Pressure  
Sea Level Pressure 29.81 in    
Wind  
Wind Speed 8 mph (NW)    
Max Wind Speed 18 mph    
Max Gust Speed 32 mph    
Visibility 10 miles    
Events      
T = Trace of Precipitation, MM = Missing Value Source: NWS Daily Summary

Daily Weather History Graph

Daily Weather History Graph

Search for Another Location

Airport or City:

Trip Planner

Search our weather history database for the weather conditions in past years. The results will help you decide how hot, cold, wet, or windy it might be!

Date:

Astronomy

Feb. 16, 2014 Rise Set
Actual Time 6:46 AM EST 5:22 PM EST
Civil Twilight 6:17 AM EST 5:51 PM EST
Nautical Twilight 5:44 AM EST 6:24 PM EST
Astronomical Twilight 5:11 AM EST 6:57 PM EST
Moon 7:20 PM EST (2/16) 7:11 AM EST (2/16)
Length of Visible Light 11h 33m
Length of Day
10h 35m
Full, 97% of the Moon is Illuminated
Feb 16
Full
Feb 22
Last Quarter
Mar 1
New
Mar 8
First Quarter
Mar 16
Full

Hourly Weather History & Observations

Time (EST) Temp. Windchill Dew Point Humidity Pressure Visibility Wind Dir Wind Speed Gust Speed Precip Events Conditions
12:54 AM 24.1 °F 14.4 °F 12.0 °F 60% 29.66 in 10.0 mi NW 9.2 mph 19.6 mph N/A   Clear
1:54 AM 21.9 °F 14.5 °F 10.9 °F 63% 29.66 in 10.0 mi NW 5.8 mph - N/A   Scattered Clouds
2:54 AM 21.0 °F 9.3 °F 8.1 °F 57% 29.66 in 9.0 mi NW 11.5 mph 29.9 mph N/A   Clear
3:54 AM 19.0 °F 11.1 °F 8.1 °F 62% 29.68 in 10.0 mi Variable 5.8 mph 23.0 mph N/A   Clear
4:54 AM 18.0 °F 6.1 °F 8.1 °F 65% 29.69 in 10.0 mi WNW 10.4 mph 20.7 mph N/A   Clear
5:36 AM 17.1 °F 1.0 °F 8.1 °F 68% 29.68 in 9.0 mi WNW 18.4 mph 28.8 mph N/A   Mostly Cloudy
5:54 AM 17.1 °F 5.8 °F 7.0 °F 65% 29.71 in 10.0 mi WNW 9.2 mph 19.6 mph N/A   Overcast
6:54 AM 16.0 °F 6.3 °F 7.0 °F 68% 29.74 in 10.0 mi Variable 6.9 mph - 0.00 in   Overcast
7:54 AM 16.0 °F 4.4 °F 7.0 °F 68% 29.76 in 10.0 mi WNW 9.2 mph 18.4 mph N/A   Overcast
8:54 AM 16.0 °F 4.4 °F 6.1 °F 65% 29.79 in 9.0 mi WNW 9.2 mph 19.6 mph 0.00 in   Overcast
9:31 AM 17.1 °F 2.0 °F 6.1 °F 62% 29.76 in 10.0 mi West 16.1 mph - N/A   Scattered Clouds
9:54 AM 19.0 °F 6.1 °F 5.0 °F 54% 29.80 in 10.0 mi WNW 12.7 mph 20.7 mph N/A   Clear
10:54 AM 19.9 °F 9.3 °F 3.0 °F 48% 29.82 in 10.0 mi NW 9.2 mph 19.6 mph N/A   Clear
11:54 AM 21.9 °F 9.2 °F 1.9 °F 42% 29.81 in 10.0 mi WNW 13.8 mph 23.0 mph N/A   Clear
12:54 PM 24.1 °F 14.4 °F 3.0 °F 40% 29.81 in 10.0 mi NW 9.2 mph - N/A   Clear
1:54 PM 24.1 °F 14.4 °F 1.9 °F 38% 29.81 in 10.0 mi NW 9.2 mph 21.9 mph N/A   Clear
2:54 PM 26.1 °F 15.6 °F 3.0 °F 37% 29.83 in 10.0 mi WNW 11.5 mph 20.7 mph N/A   Clear
3:54 PM 26.1 °F 15.0 °F 1.9 °F 35% 29.83 in 10.0 mi NW 12.7 mph 21.9 mph N/A   Clear
4:54 PM 25.0 °F 18.1 °F 1.9 °F 37% 29.85 in 10.0 mi NW 5.8 mph - N/A   Clear
5:54 PM 23.0 °F 15.8 °F -0.0 °F 37% 29.88 in 10.0 mi NW 5.8 mph - N/A   Clear
6:54 PM 21.9 °F 17.2 °F -0.0 °F 38% 29.91 in 10.0 mi NW 3.5 mph - N/A   Clear
7:54 PM 19.9 °F 13.4 °F -0.0 °F 42% 29.93 in 10.0 mi Variable 4.6 mph - N/A   Clear
8:54 PM 19.0 °F 10.0 °F -2.0 °F 40% 29.96 in 10.0 mi WNW 6.9 mph - N/A   Clear
9:54 PM 18.0 °F 8.7 °F -4.0 °F 38% 29.99 in 10.0 mi NW 6.9 mph - N/A   Clear
10:54 PM 15.1 °F 5.2 °F -4.0 °F 43% 30.01 in 10.0 mi Variable 6.9 mph - N/A   Clear
11:54 PM 14.0 °F 5.1 °F -6.0 °F 41% 30.04 in 10.0 mi NNW 5.8 mph - N/A   Clear